Location: Góry Miechowskie
(50.3599°N, 20.1803°E)
Time: 02:16:11
(UTC+00:00)

Transit 2A Rocket - Pass Details

Date: 14 September 2024
Orbit: 582 x 908 km, 66.7° (Epoch: 10 October)

Event Time Altitude Azimuth Distance (km) Brightness Sun altitude
Exits shadow 02:01:29 - 300° (WNW) 2,731 7.6 -20.6°
Reaches altitude 10° 02:02:01 10° 304° (NW) 2,601 7.5 -20.5°
Maximum altitude 02:06:08 18° 347° (NNW) 2,061 7.4 -19.9°
Drops below altitude 10° 02:10:12 10° 30° (NNE) 2,572 8.6 -19.4°
Sets 02:13:32 0° 48° (NE) 3,476 9.9 -18.9°
